Wind_Speed
1 4 8 15 14 2 3 5 6 8 8 4 22 19 15 15 16 23 24 21 14 15 18 14 20 21 21 24 28 32 34 39 40 41 38 38 46 49 53 54 54 50 47 45
3 7 15 2 4 7 7 10 14 8 10 4 12 20 20 22 20 20 23 19 10 11 14 13 20 22 21 23 25 29 34 37 42 41 40 29 33 34 43 49 52 51 50 48
9 6 4 7 5 8 5 6 10 10 6 6 7 8 4 7 5 7 13 8 9 7 11 10 10 17 17 21 27 26 32 35 38 39 34 31 22 25 34 43 48 52 52 51
6 3 6 4 6 8 9 10 11 6 4 4 5 9 5 8 10 2 7 7 8 7 4 5 9 19 25 24 18 20 23 30 33 36 34 37 32 24 31 35 40 49 52 53
7 5 4 4 8 7 10 1 2 2 3 3 3 4 6 3 6 7 4 5 2 2 7 7 14 24 29 29 23 15 11 19 25 33 35 35 30 26 22 30 36 43 48 50
7 3 4 7 4 6 3 3 5 4 2 5 10 8 1 4 4 1 8 2 3 5 11 15 22 23 25 32 24 18 9 7 16 23 28 30 27 24 23 28 32 38 45 50
1 4 3 2 1 2 2 4 4 4 1 7 3 3 5 5 5 5 6 9 8 9 8 16 19 21 25 26 32 27 20 11 9 15 23 27 28 28 30 31 30 33 38 46
3 17 8 6 7 7 7 8 5 6 6 12 2 9 7 8 2 6 2 4 7 20 17 17 16 22 29 33 34 36 28 21 15 13 16 22 27 28 29 29 30 34 38 45
5 10 1 5 4 7 4 6 5 2 3 2 8 12 14 5 5 7 11 17 16 14 14 16 21 28 30 33 38 38 35 29 23 18 19 20 24 27 31 31 30 33 35 37
3 7 7 3 2 3 7 3 1 1 3 9 6 5 13 6 9 14 15 13 14 15 16 14 14 21 26 29 31 35 37 35 35 31 24 23 24 26 31 32 33 35 36 36
3 5 7 3 6 8 1 4 4 3 4 5 7 8 4 8 12 8 5 7 9 11 11 11 13 21 24 28 30 29 31 33 35 35 36 27 23 26 28 31 34 36 36 36
6 5 7 13 7 3 3 7 8 5 7 5 6 8 14 13 11 9 9 11 11 10 11 10 14 17 20 21 24 27 30 30 33 36 36 34 34 25 25 30 33 35 37 38
2 4 5 5 3 3 3 3 6 5 2 11 11 5 11 10 13 11 10 10 9 10 13 12 11 13 16 17 18 20 25 26 31 36 36 38 37 34 29 28 31 33 35 39
2 4 13 15 13 4 7 6 4 4 7 11 9 8 11 5 12 9 7 7 7 8 9 9 10 15 21 20 19 18 20 21 25 30 27 26 33 37 37 33 31 32 32 34
5 10 9 13 13 4 8 10 16 16 16 11 15 20 22 1 3 6 4 6 7 6 8 11 11 9 17 21 24 25 23 24 26 26 24 27 27 31 36 36 31 28 30 34
2 4 1 4 11 14 17 17 18 17 17 14 17 21 7 3 2 4 6 3 9 9 9 8 7 9 14 18 21 25 26 29 31 24 24 26 28 30 30 35 36 32 31 31
3 3 8 20 7 4 7 14 14 13 18 12 16 3 1 2 4 4 5 5 6 7 9 8 8 9 15 19 20 20 24 29 27 24 26 26 28 32 33 34 35 34 30 31
9 8 4 8 4 19 7 4 0 5 2 5 6 3 5 6 4 6 8 6 6 6 8 9 10 16 19 24 26 26 26 30 26 25 25 27 31 34 32 35 35 34 29 25
17 11 5 8 14 13 16 4 4 4 5 5 5 3 4 4 3 6 9 9 6 7 10 14 18 21 24 26 27 26 27 26 23 23 25 28 29 31 28 30 32 36 33 31
9 13 10 2 4 6 3 2 1 3 4 6 6 5 5 1 3 10 7 6 8 12 17 17 23 24 23 25 23 24 23 24 23 24 27 30 31 29 31 31 31 32 32 33
3 2 12 11 8 6 5 5 3 5 5 4 5 8 7 5 10 12 5 7 12 15 18 19 21 21 25 23 21 23 23 23 25 28 31 31 30 30 32 33 33 32 31 30
4 4 3 2 2 8 5 2 5 5 5 6 6 9 8 10 12 13 14 11 8 9 18 22 18 23 27 25 23 24 26 27 27 31 31 30 31 33 32 31 34 31 29 28
4 6 4 9 6 4 5 6 11 12 9 12 5 9 8 10 11 13 11 7 7 13 17 20 24 28 33 30 25 25 33 27 28 28 34 35 35 33 30 28 33 30 27 24
6 6 9 13 11 13 14 16 13 8 12 10 8 8 7 10 12 9 8 9 10 17 18 20 21 23 30 33 27 27 30 27 29 31 35 35 34 36 34 31 29 28 27 24
9 4 6 13 15 13 16 16 17 15 11 8 6 2 3 3 6 6 10 11 14 20 22 22 22 24 31 33 35 33 31 30 31 32 36 35 33 33 33 30 29 29 31 29
11 17 10 14 16 14 19 17 7 6 4 3 3 3 1 2 7 8 11 16 19 22 25 26 28 29 33 35 37 37 35 32 33 35 34 31 30 30 30 30 33 33 35 37
Wind_Direction
49 125 203 219 207 264 285 242 253 260 258 310 286 279 278 273 263 272 277 276 277 275 278 300 298 292 281 267 255 248 239 233 218 207 202 210 215 217 223 224 224 219 217 214
60 218 227 119 167 227 250 271 272 277 269 183 270 284 282 265 270 256 267 282 284 288 315 311 318 315 294 282 267 250 241 231 220 209 206 208 211 219 221 221 223 220 217 215
200 218 166 193 195 248 212 231 264 257 326 253 309 276 231 274 253 254 262 278 277 281 298 313 319 314 325 308 290 265 251 236 223 211 201 204 206 216 216 220 221 219 218 216
232 272 194 167 214 190 265 234 254 275 353 260 23 295 208 257 268 342 295 302 302 319 317 311 307 342 345 336 316 296 268 245 230 215 205 200 202 198 211 210 215 218 218 217
249 179 181 176 221 150 230 180 243 168 199 344 324 291 258 214 276 260 242 193 208 323 270 288 356 353 355 355 348 335 298 256 239 223 215 208 212 216 221 203 208 213 216 219
242 325 204 221 221 198 115 81 47 49 67 279 206 193 286 187 207 301 349 355 84 357 11 360 8 357 359 18 14 15 350 246 239 237 228 226 224 222 217 205 201 208 213 214
305 225 279 184 194 34 90 70 322 325 14 236 343 254 237 247 267 17 305 322 11 12 348 13 5 1 4 13 23 24 18 352 282 243 244 242 239 237 228 218 208 199 204 212
203 287 184 175 204 193 187 171 201 223 263 275 92 258 266 230 298 355 29 258 16 19 13 18 12 17 14 12 17 24 18 358 337 288 263 258 256 252 250 245 225 220 216 215
203 265 240 212 167 166 164 189 209 266 53 318 252 273 295 191 73 18 10 35 44 39 26 18 14 16 16 19 25 24 23 13 359 336 306 282 267 257 254 249 247 246 239 232
350 305 212 288 77 257 183 153 154 333 230 240 260 248 245 14 45 42 37 22 15 16 22 24 27 21 19 17 20 21 22 23 20 13 351 317 293 276 263 256 249 246 245 239
149 196 266 358 200 202 142 243 230 287 173 231 251 244 220 63 85 92 57 38 21 22 18 16 16 19 17 16 15 11 11 11 8 6 7 358 329 298 282 268 261 255 251 243
210 203 227 264 258 241 235 232 187 220 219 217 246 248 280 95 70 84 52 34 28 23 12 9 9 12 14 13 10 8 4 4 2 0 1 0 358 340 303 284 273 262 254 250
287 215 294 266 265 51 214 258 251 276 225 244 264 265 360 29 48 51 59 42 31 17 3 358 4 7 6 7 6 4 359 357 355 357 358 358 358 351 338 311 297 279 266 256
23 256 246 256 269 323 261 221 260 238 261 274 253 288 298 2 345 22 27 24 13 1 350 346 351 353 353 356 358 356 352 352 350 352 349 349 351 351 351 341 318 299 286 267
210 258 250 262 267 299 285 289 276 272 273 266 282 286 278 255 352 327 310 331 333 356 353 341 338 340 343 346 347 347 346 345 346 341 344 339 340 344 346 346 336 316 293 276
280 270 226 254 278 281 276 271 270 274 275 266 262 262 78 126 252 277 298 311 329 338 331 332 314 332 333 337 339 336 338 341 342 336 332 337 335 339 338 337 338 333 313 290
244 281 270 271 284 306 262 247 260 260 262 261 260 270 191 252 263 278 307 273 284 308 312 306 315 326 322 322 325 325 328 333 333 332 336 336 337 334 333 333 329 328 319 295
243 249 257 274 29 266 288 48 307 232 77 122 110 151 217 237 244 276 276 236 258 281 299 295 303 307 309 313 317 323 323 326 328 329 333 331 331 329 324 327 325 317 310 289
216 234 256 250 253 281 292 235 188 178 252 184 166 227 254 277 333 268 240 225 250 260 266 262 280 291 298 301 306 313 314 318 319 320 322 323 324 321 318 314 312 313 308 298
212 225 238 153 228 224 251 208 49 110 281 216 182 238 245 148 249 271 230 236 243 260 281 286 297 300 294 291 300 297 299 305 305 311 315 317 314 311 307 309 302 300 299 292
6 358 225 235 246 283 228 223 142 95 270 219 194 229 221 214 242 262 230 246 253 260 272 286 294 288 288 292 299 282 289 287 295 301 308 308 304 302 303 303 301 295 295 293
194 187 205 72 23 273 185 139 165 212 251 240 218 233 245 266 266 257 262 266 272 289 298 299 295 291 293 295 294 285 285 292 291 298 300 298 299 300 299 296 295 293 286 283
280 192 203 197 212 220 202 219 271 278 253 270 235 263 232 255 263 265 263 274 286 283 281 288 289 291 293 292 289 281 287 296 296 296 298 299 299 295 292 288 290 291 282 271
242 181 242 263 246 248 267 274 275 265 251 263 261 255 262 258 266 277 292 293 290 290 289 293 289 286 290 295 294 289 295 299 297 295 295 296 295 295 294 290 284 283 278 270
238 176 251 257 260 268 264 256 259 269 275 276 290 286 296 303 299 301 293 295 297 299 303 304 298 294 292 298 297 299 300 301 296 291 292 293 289 287 288 282 279 278 276 267
238 251 247 256 259 251 265 271 266 238 253 51 11 339 21 326 300 304 295 302 303 304 310 308 303 301 299 301 299 299 300 298 294 291 291 289 288 286 284 284 286 278 275 275
Height
817 826 827 812 815 812 814 819 822 812 799 801 786 781 780 772 769 757 746 739 742 739 732 737 734 731 728 727 726 726 728 729 733 738 743 749 747 755 759 764 770 777 783 789
824 826 810 807 811 815 818 819 814 803 795 804 793 778 769 759 750 747 739 734 740 737 734 732 730 728 724 721 720 718 717 719 722 726 729 737 742 748 753 758 762 768 774 780
812 803 803 809 811 813 817 817 803 807 803 798 796 777 770 749 748 742 737 741 739 739 735 731 726 725 719 716 715 714 716 715 717 720 726 731 737 743 746 749 752 758 765 770
811 801 802 809 808 808 811 800 803 806 808 807 794 782 768 747 741 739 740 741 741 741 735 734 729 720 716 711 708 710 712 716 718 722 724 723 723 725 725 735 745 752 759 763
800 801 804 805 800 800 800 791 796 800 809 808 804 808 765 750 747 740 732 732 733 735 739 731 725 723 724 720 713 710 709 716 723 725 723 724 724 724 726 729 733 742 752 761
802 798 797 793 792 794 790 793 805 819 814 812 788 792 765 757 741 737 730 730 732 737 733 731 730 732 731 722 719 712 713 712 720 729 731 732 732 730 730 729 730 735 740 747
798 797 792 789 792 797 796 802 814 814 828 796 791 794 752 739 735 734 737 738 740 742 738 738 739 737 734 728 721 718 717 721 724 724 732 736 737 735 731 729 730 728 731 738
800 789 789 788 785 786 799 795 802 817 807 772 811 773 742 738 733 741 741 741 745 750 752 755 752 747 741 736 729 719 721 727 727 730 727 732 737 739 740 740 733 729 730 729
802 788 780 785 779 776 793 794 780 791 808 807 764 752 727 733 745 745 746 753 767 768 769 766 761 755 750 741 734 736 733 732 730 730 731 731 732 733 733 733 735 735 733 733
787 793 776 778 779 779 778 776 787 797 793 787 767 768 739 740 753 757 773 778 772 766 764 765 761 762 758 753 746 744 742 739 736 732 730 729 730 732 731 728 726 725 728 730
789 803 782 779 779 776 786 781 778 774 780 775 764 755 736 749 771 779 778 780 778 773 770 766 764 759 759 755 749 750 746 743 740 735 731 728 727 727 727 723 722 724 722 723
784 786 783 771 768 768 765 765 764 770 772 774 757 749 735 763 771 776 778 776 779 780 777 773 770 765 759 756 753 750 749 747 742 738 735 730 726 723 721 720 718 719 717 717
790 780 776 777 767 772 768 766 764 768 775 757 758 746 742 754 768 772 779 780 779 779 775 772 767 764 763 759 756 754 750 747 745 739 734 730 726 722 717 715 714 714 713 711
791 786 773 766 757 770 774 775 773 774 759 750 747 747 746 763 774 779 782 781 779 777 776 771 769 767 762 760 757 755 754 748 744 739 736 734 730 725 717 711 710 708 706 706
788 780 779 772 770 784 781 784 782 781 775 773 758 760 748 769 780 779 778 780 777 773 773 772 768 769 764 758 754 754 752 748 741 740 733 733 728 722 716 713 708 701 701 702
794 781 790 786 776 775 775 774 766 765 763 761 758 750 774 779 781 779 776 777 774 770 770 768 767 767 764 759 755 756 750 743 738 736 735 728 726 719 714 711 703 696 694 694
797 792 784 773 777 786 791 770 762 759 753 754 757 775 786 786 780 777 776 775 773 770 768 766 765 762 760 758 757 756 748 743 742 738 730 725 721 716 710 706 703 694 692 692
792 794 791 780 811 778 753 768 761 762 769 779 781 784 781 776 774 775 772 771 769 768 766 764 762 760 757 755 752 750 745 741 736 731 726 725 718 713 709 701 699 697 692 689
785 784 804 790 781 763 756 764 765 765 771 779 781 778 773 773 776 773 767 765 764 765 764 762 760 757 753 751 748 745 741 737 732 729 726 722 715 711 707 701 697 692 689 681
780 783 783 815 800 828 767 766 768 770 785 779 782 781 778 774 781 765 761 760 761 760 757 755 752 750 747 743 743 739 735 731 727 723 720 714 711 708 703 697 693 690 683 678
831 828 784 780 779 787 777 771 769 798 785 777 776 772 772 772 765 756 756 756 755 752 752 751 749 745 740 737 736 732 728 723 720 717 714 710 706 703 696 690 686 680 674 665
794 826 851 864 834 798 765 767 776 770 762 763 763 760 758 756 754 752 750 748 748 746 744 743 742 738 734 732 730 725 721 717 714 711 707 704 700 694 688 684 677 672 666 659
800 790 801 797 790 763 761 762 756 754 758 753 755 751 751 751 748 745 744 744 743 743 742 740 737 731 726 725 724 718 711 710 706 702 697 692 687 683 679 675 667 663 657 650
779 776 774 766 756 759 752 747 747 748 747 744 745 744 744 745 742 742 742 741 740 739 737 736 733 728 721 717 715 712 707 704 699 693 688 682 676 670 666 662 657 651 643 639
763 769 767 757 750 750 745 742 739 738 739 740 739 741 742 743 742 743 741 739 737 734 733 731 728 723 716 712 707 705 701 697 691 685 679 673 668 662 655 650 646 641 634 631
749 751 756 747 738 740 733 731 735 736 737 741 742 743 744 745 744 744 740 739 736 732 729 726 723 720 712 707 701 697 695 691 684 676 670 666 660 655 649 641 631 628 624 619